星链-30585 (STARLINK-30585 )

导读

STARLINK-30585是美国SpaceX公司星链(Starlink)卫星互联网星座的成员,于2023年10月13日发射。作为低轨通信卫星,它运行在近地轨道,搭载Ku/Ka波段通信载荷与霍尔推进系统,旨在为全球偏远缺乏基础设施区域提供高速低延迟宽带互联网服务,单星设计寿命约5-7年,退役后会主动离轨再入大气层销毁。

Basic Information
目录编号:
58063
目录名称:
STARLINK-30585
国际标识:
2023-158N
轨道中心:
EARTH
卫星名称:
星链-30585
卫星全名:
星链-30585 (STARLINK-30585 )
卫星状态:
在轨 (已飞行979 天)
发射日期:
2023-10-13 UTC
国别 :
美国 (US)
星等 :
--
Orbit Information
数据来源 国际轨道数据 AOE轨道数据
星历时间 2026-06-17T02:42:29+0800
1天前
查看轨道信息
2026-06-15T06:00:00+0800
3天前
查看轨道信息
半长轴 6861.19km 6861.173km
偏心率 0.0002 0.0001586
轨道倾角 43.003° 43.000°
近地点辐角 264.528° 258.494°
升交点赤经 187.515° 198.043°
平近点角 95.535° 285.288°
近地点 481.68km 481.947km
远地点 484.426km 484.125km
周期 94.267分钟 94.266分钟
每日圈数 15.275787 15.275844
Detailed Information
固有亮度:
5
最大亮度:
0.3
卫星平台:
Starlink v2.0 mini
覆盖范围:
全球
运营商:
太空探索技术公司
运营商所在国:
美国
制造商(研发单位):
太空探索技术公司
制造商所在国:
美国
使用方式:
暂无
Satellite Introduction
星链(Starlink)计划是由太空探索技术公司(SpaceX)提出的一个巨型低轨卫星互联网星座项目,计划在2019年至2024年间在太空搭建由约1.2万颗卫星组成的“星链”网络,其中1584颗将部署在地球上空550千米处的近地轨道,并从2020年开始工作。该卫星仍在工作。
2D Orbit Map
3D Orbit Map
Orbit Altitude Analysis Chart
Orbit Inclination Analysis Chart
Orbit Comprehensive Analysis Chart
View Comprehensive Chart